Ely, NV

5:26 AM PST on November 23, 2017 (GMT -0800)
Ely

Weather History for KELY - December, 2012

Change the Weather History Date:

Monday, December 10, 2012

  Actual Average Record
Temperature  
Mean Temperature 31 °F 25 °F  
Max Temperature 46 °F 40 °F 61 °F (1990)
Min Temperature 15 °F 11 °F -28 °F (1972)
Degree Days  
Heating Degree Days 34 40  
Month to date heating degree days 289 386  
Since 1 July heating degree days 1711 2254  
Cooling Degree Days 0 0  
Month to date cooling degree days 0 0  
Year to date cooling degree days 314 218  
Moisture  
Dew Point 18 °F    
Average Humidity 57    
Maximum Humidity 80    
Minimum Humidity 33    
Precipitation  
Precipitation 0.00 in 0.02 in 0.40 in (1902)
Month to date precipitation 0.15 0.17  
Year to date precipitation 10.67 9.34  
Snow  
Snow 0.00 in 0.20 in 4.00 in (1902)
Month to date snowfall T 2.1  
Since 1 July snowfall 10.0 11.6  
Snow Depth 0.00 in    
Sea Level Pressure  
Sea Level Pressure 30.25 in    
Wind  
Wind Speed 9 mph (WNW)    
Max Wind Speed 22 mph    
Max Gust Speed 28 mph    
Visibility 10 miles    
Events      
T = Trace of Precipitation, MM = Missing Value Source: NWS Daily Summary

Daily Weather History Graph

Daily Weather History Graph

Search for Another Location

Airport or City:

Trip Planner

Search our weather history database for the weather conditions in past years. The results will help you decide how hot, cold, wet, or windy it might be!

Date:

Astronomy

Dec. 10, 2012 Rise Set
Actual Time 6:48 AM PST 4:16 PM PST
Civil Twilight 6:18 AM PST 4:46 PM PST
Nautical Twilight 5:45 AM PST 5:19 PM PST
Astronomical Twilight 5:12 AM PST 5:52 PM PST
Moon 3:37 AM PST (12/10) 2:08 PM PST (12/10)
Length of Visible Light 10h 27m
Length of Day
9h 27m
Waning Crescent, 9% of the Moon is Illuminated
Dec 10
Waning Crescent
Dec 13
New
Dec 19
First Quarter
Dec 28
Full
Jan 4
Last Quarter

Hourly Weather History & Observations

Time (PST) Temp. Windchill Dew Point Humidity Pressure Visibility Wind Dir Wind Speed Gust Speed Precip Events Conditions
12:53 AM 16.0 °F 5.3 °F 10.9 °F 81% 30.35 in 10.0 mi South 8.1 mph - N/A   Partly Cloudy
1:53 AM 19.9 °F 9.3 °F 12.9 °F 74% 30.32 in 10.0 mi South 9.2 mph - N/A   Overcast
2:53 AM 19.0 °F 9.0 °F 12.9 °F 77% 30.32 in 10.0 mi South 8.1 mph - N/A   Mostly Cloudy
3:53 AM 21.2 °F 12.6 °F 14.0 °F 74% 30.25 in 10.0 mi SSE 6.9 mph - N/A   Overcast
4:53 AM 21.0 °F 11.4 °F 14.0 °F 74% 30.31 in 10.0 mi South 8.1 mph - N/A   Scattered Clouds
5:53 AM 19.0 °F 7.5 °F 12.9 °F 77% 30.33 in 10.0 mi South 10.4 mph - N/A   Scattered Clouds
6:53 AM 18.0 °F 9.8 °F 12.9 °F 81% 30.36 in 10.0 mi SE 5.8 mph - N/A   Scattered Clouds
7:53 AM 30.0 °F 24.1 °F 23.0 °F 75% 30.32 in 10.0 mi West 5.8 mph - N/A   Mostly Cloudy
8:53 AM 34.0 °F 29.8 °F 25.0 °F 70% 30.30 in 10.0 mi Variable 4.6 mph - N/A   Mostly Cloudy
9:17 AM 37.4 °F 30.8 °F 24.8 °F 60% 30.26 in 10.0 mi North 9.2 mph 17.3 mph N/A   Mostly Cloudy
9:27 AM 37.4 °F 30.8 °F 24.8 °F 60% 30.26 in 10.0 mi NW 9.2 mph - N/A   Mostly Cloudy
9:53 AM 39.0 °F 35.7 °F 25.0 °F 57% 30.29 in 10.0 mi North 4.6 mph - N/A   Scattered Clouds
10:53 AM 42.1 °F 35.2 °F 24.1 °F 49% 30.27 in 10.0 mi NNW 12.7 mph 18.4 mph N/A   Clear
11:53 AM 43.0 °F 35.7 °F 23.0 °F 45% 30.24 in 10.0 mi NNE 15.0 mph - N/A   Mostly Cloudy
12:53 PM 45.0 °F 36.9 °F 18.0 °F 34% 30.19 in 10.0 mi NW 20.7 mph 27.6 mph N/A   Clear
1:53 PM 45.0 °F 38.9 °F 19.9 °F 37% 30.18 in 10.0 mi NW 12.7 mph 23.0 mph N/A   Clear
2:53 PM 44.1 °F 35.9 °F 19.0 °F 37% 30.18 in 10.0 mi NW 19.6 mph 26.5 mph N/A   Clear
3:53 PM 39.0 °F 32.3 °F 19.0 °F 45% 30.19 in 10.0 mi West 10.4 mph - N/A   Scattered Clouds
4:53 PM 36.0 °F 28.0 °F 18.0 °F 48% 30.20 in 10.0 mi West 11.5 mph - N/A   Clear
5:53 PM 34.0 °F 28.0 °F 19.9 °F 56% 30.23 in 10.0 mi West 6.9 mph - N/A   Clear
6:53 PM 33.1 °F 23.9 °F 19.0 °F 56% 30.23 in 10.0 mi West 12.7 mph - N/A   Clear
7:53 PM 33.1 °F 25.5 °F 19.0 °F 56% 30.19 in 10.0 mi North 9.2 mph 16.1 mph N/A   Clear
8:53 PM 32.0 °F - 18.0 °F 56% 30.19 in 10.0 mi Calm Calm - N/A   Clear
9:53 PM 26.1 °F 19.4 °F 16.0 °F 66% 30.18 in 10.0 mi WNW 5.8 mph - N/A   Clear
10:53 PM 28.9 °F 21.9 °F 18.0 °F 64% 30.16 in 10.0 mi NW 6.9 mph - N/A   Clear
11:53 PM 23.0 °F 14.7 °F 16.0 °F 74% 30.17 in 10.0 mi WNW 6.9 mph - N/A   Clear